Location: Hurstbourne Priors
(51.2000°N, 1.3667°W)
Time: 19:29:39
(UTC+00:00)

Tiros 1 despin weight - Visible Passes

Search period start: 19 April 2021 00:00
Search period end: 29 April 2021 00:00
Orbit: 593 x 641 km, 48.2° (Epoch: 18 April)

Date Brightness Start Highest point End Pass type
(mag) Time Alt. Az. Time Alt. Az. Time Alt. Az.
21 Apr ? 04:04:07 10° SSE 04:06:18 13° SE 04:08:29 10° ESE visible
24 Apr ? 03:10:55 11° S 03:13:35 16° SE 03:16:26 10° ESE visible
25 Apr ? 03:26:24 13° SSW 03:29:32 25° SSE 03:33:17 10° E visible
26 Apr ? 02:04:47 12° SE 02:04:58 12° SE 02:06:48 10° ESE visible
26 Apr ? 03:41:49 12° SW 03:45:36 35° SSE 03:49:47 10° E visible
27 Apr ? 02:20:10 19° SSE 02:20:51 20° SE 02:24:12 10° E visible
27 Apr ? 03:57:17 10° WSW 04:01:45 47° SSE 04:06:08 10° E visible
28 Apr ? 02:35:29 25° S 02:36:51 29° SSE 02:40:51 10° E visible
